Location: Lawrenceville
(33.9572°N, 83.9896°W)
Time: 23:50:44
(UTC+00:00)

Hubble Space Telescope - Pass Details

Date: 22 April 2024
Orbit: 512 x 515 km, 28.5° (Epoch: 19 May)

Event Time Altitude Azimuth Distance (km) Brightness Sun altitude
Rises 00:51:33 0° 257° (WSW) 2,605 5.3 -8.5°
Reaches altitude 10° 00:55:14 10° 222° (SW) 1,716 3.6 -9.2°
Maximum altitude 00:56:29 11° 203° (SSW) 1,635 3.3 -9.5°
Drops below altitude 10° 00:57:45 10° 185° (S) 1,713 3.2 -9.7°
Enters shadow 00:59:58 - 160° (SSE) 2,167 3.5 -10.1°
